Weather History for Anchorage Merrill, AK

Change the Weather History Date:

Wednesday, December 25, 2013

  Actual Average Record
Temperature  
Mean Temperature -6 °F -  
Max Temperature 1 °F 20 °F 33 °F (1993)
Min Temperature -11 °F 7 °F -11 °F (2013)
Degree Days  
Heating Degree Days 70    
Moisture  
Dew Point -9 °F    
Average Humidity 76    
Maximum Humidity 83    
Minimum Humidity 71    
Precipitation  
Precipitation 0.00 in - - ()
Sea Level Pressure  
Sea Level Pressure 29.76 in    
Wind  
Wind Speed 2 mph (ENE)    
Max Wind Speed 6 mph    
Max Gust Speed -    
Visibility 7 miles    
Events      
Averages and records for this station are not official NWS values.
T = Trace of Precipitation, MM = Missing Value Source: NWS Daily Summary

Daily Weather History Graph

Daily Weather History Graph

Search for Another Location

Airport:

Trip Planner

Search our weather history database for the weather conditions in past years. The results will help you decide how hot, cold, wet, or windy it might be!

Date:

Astronomy

Dec. 25, 2013 Rise Set
Actual Time 10:15 AM AKST 3:44 PM AKST
Civil Twilight 9:13 AM AKST 4:46 PM AKST
Nautical Twilight 8:13 AM AKST 5:46 PM AKST
Astronomical Twilight 7:19 AM AKST 6:39 PM AKST
Moon 1:11 AM AKST (12/25) 12:26 PM AKST (12/25)
Length of Visible Light 7h 33m
Length of Day
5h 28m
Waning Gibbous, 47% of the Moon is Illuminated
Dec 25
Waning Gibbous
Jan 1
New
Jan 7
First Quarter
Jan 15
Full
Jan 23
Last Quarter

Hourly Weather History & Observations

Time (AKST) Temp. Windchill Dew Point Humidity Pressure Visibility Wind Dir Wind Speed Gust Speed Precip Events Conditions
12:53 AM -5.1 °F -13.6 °F -11.0 °F 76% 29.80 in 10.0 mi East 3.5 mph - N/A   Clear
1:53 AM -6.0 °F -14.7 °F -11.0 °F 79% 29.79 in 10.0 mi East 3.5 mph - N/A   Clear
3:53 AM -6.0 °F - -11.0 °F 79% 29.78 in 10.0 mi Calm Calm - N/A   Clear
4:53 AM -9.0 °F -18.2 °F -14.1 °F 79% 29.77 in 10.0 mi ENE 3.5 mph - N/A   Clear
5:53 AM -8.0 °F -16.9 °F -15.0 °F 71% 29.76 in 10.0 mi ENE 3.5 mph - N/A   Clear
6:53 AM -8.0 °F - -15.0 °F 71% 29.76 in 10.0 mi Calm Calm - N/A   Clear
7:53 AM -7.1 °F - -13.0 °F 75% 29.76 in 10.0 mi Calm Calm - N/A   Clear
8:53 AM -11.9 °F -21.5 °F -16.1 °F 82% 29.77 in 10.0 mi ESE 3.5 mph - N/A   Clear
9:53 AM -9.0 °F - -15.0 °F 75% 29.77 in 10.0 mi Calm Calm - N/A   Clear
10:53 AM -7.1 °F - -14.1 °F 72% 29.78 in 8.0 mi Calm Calm - N/A   Clear
11:53 AM -2.9 °F - -9.0 °F 75% 29.78 in 10.0 mi Calm Calm - N/A   Clear
12:53 PM -2.9 °F - -8.0 °F 79% 29.77 in 10.0 mi Calm Calm - N/A   Partly Cloudy
1:53 PM -0.0 °F - -7.1 °F 72% 29.78 in 10.0 mi Calm Calm - N/A   Partly Cloudy
2:53 PM -0.0 °F - -5.1 °F 79% 29.76 in 10.0 mi Calm Calm - N/A   Partly Cloudy
3:12 PM -0.4 °F -10.4 °F -5.8 °F 78% 29.74 in 1.5 mi NE 4.6 mph - N/A   Haze
3:22 PM -0.4 °F -10.4 °F -5.8 °F 78% 29.74 in 0.5 mi NE 4.6 mph - N/A   Haze
3:53 PM -0.9 °F - -5.1 °F 83% 29.76 in 1.5 mi Calm Calm - N/A   Scattered Clouds
4:11 PM -4.0 °F -12.4 °F -9.4 °F 78% 29.74 in 10.0 mi ENE 3.5 mph - N/A   Scattered Clouds
4:53 PM -0.9 °F -8.9 °F -6.0 °F 79% 29.75 in 10.0 mi ENE 3.5 mph - N/A   Scattered Clouds
5:53 PM -2.9 °F - -9.0 °F 75% 29.76 in 9.0 mi Calm Calm - N/A   Scattered Clouds
6:53 PM -0.9 °F -8.9 °F -7.1 °F 75% 29.75 in 10.0 mi East 3.5 mph - N/A   Scattered Clouds
7:53 PM -2.0 °F - -9.0 °F 72% 29.75 in 10.0 mi Calm Calm - N/A   Mostly Cloudy
8:53 PM -0.9 °F - -8.0 °F 72% 29.75 in 7.0 mi Calm Calm - N/A   Clear
9:00 PM -2.2 °F - -7.6 °F 78% 29.74 in 7.0 mi Calm Calm - N/A   Scattered Clouds
9:11 PM -0.4 °F - -7.6 °F 72% 29.74 in 10.0 mi Calm Calm - N/A   Mostly Cloudy
9:20 PM -0.4 °F - -7.6 °F 72% 29.74 in 2.0 mi Calm Calm - N/A   Haze
9:26 PM -2.2 °F -10.4 °F -7.6 °F 78% 29.74 in 1.0 mi ENE 3.5 mph - N/A   Haze
9:31 PM -2.2 °F -10.4 °F -7.6 °F 78% 29.74 in 4.0 mi East 3.5 mph - N/A   Overcast
9:53 PM -0.0 °F -9.9 °F -6.0 °F 76% 29.76 in 0.8 mi East 4.6 mph - N/A   Overcast
10:53 PM -0.0 °F -11.6 °F -6.0 °F 76% 29.76 in 1.0 mi East 5.8 mph - N/A   Overcast
11:02 PM -0.4 °F -12.0 °F -5.8 °F 78% 29.74 in 3.0 mi East 5.8 mph - N/A   Overcast
11:53 PM 1.0 °F -6.7 °F -5.1 °F 75% 29.74 in 10.0 mi North 3.5 mph - N/A   Mostly Cloudy